Overview Statistics Trail Chart Weather Telemetry Raw packets
 

This is the latest recevied weather packets stored in our database for station/object N4XHQ-13. If no packets are shown the sender has not sent any weather packets the latest 10 day(s).

<< 3 4 5 6 7 8 9 >>
Time Temp. Humidity Pressure Rain* Wind** Luminosity Snow
1788544543 37.22° C 41% 1016 hPa 0 mm - 526 W/m² -
1788544242 37.22° C 41% 1015.8 hPa 0 mm - 1021 W/m² -
1788543937 36.67° C 43% 1015.7 hPa 0 mm - 1016 W/m² -
1788543635 36.11° C 42% 1015.9 hPa 0 mm - 597 W/m² -
1788543334 36.11° C 43% 1016.1 hPa 0 mm - 987 W/m² -
1788543030 35.56° C 44% 1016.2 hPa 0 mm - 1032 W/m² -
1788542726 35.56° C 45% 1016.3 hPa 0 mm - 960 W/m² -
1788542424 35.56° C 44% 1016.4 hPa 0 mm - 233 W/m² -
1788542120 35.56° C 44% 1016.6 hPa 0 mm - 286 W/m² -
1788541816 36.11° C 44% 1016.4 hPa 0 mm - 992 W/m² -
1788541511 35.56° C 45% 1016.5 hPa 0 mm - 948 W/m² -
1788541207 35° C 45% 1016.5 hPa 0 mm - 955 W/m² -
1788540906 36.11° C 45% 1016.4 hPa 0 mm - 210 W/m² -
1788540605 36.11° C 43% 1016.3 hPa 0 mm - 224 W/m² -
1788540300 36.11° C 45% 1016.4 hPa 0 mm - 947 W/m² -
1788539996 35.56° C 45% 1016.4 hPa 0 mm - 908 W/m² -
1788539696 35.56° C 44% 1016.9 hPa 0 mm - 845 W/m² -
1788539395 35.56° C 44% 1016.9 hPa 0 mm - 861 W/m² -
1788539091 35° C 46% 1017 hPa 0 mm - 942 W/m² -
1788538786 35.56° C 45% 1017.1 hPa 0 mm - 400 W/m² -
1788538482 35.56° C 45% 1017.1 hPa 0 mm - 465 W/m² -
1788538177 35.56° C 46% 1017.2 hPa 0 mm - 928 W/m² -
1788537872 35.56° C 45% 1017 hPa 0 mm - 810 W/m² -
1788537567 35° C 46% 1017 hPa 0 mm - 809 W/m² -
1788537262 35° C 46% 1017.1 hPa 0 mm - 764 W/m² -

* Rain latest hour (hover to see other rain measurements)
** Current wind speed in m/s (hover to see current wind gust speed)